| time (UTC) | temp F | wind direction | speed knots | gust knots | rain 1hr in | rain 24hr in | rain mn in | humidity % | barometer mb |
| 20260502130103 | 43 | 0 | 0.0 | 2.6 | 0.00 | 0.00 | 0.00 | 78 | 1016.1 |
| 20260502123111 | 43 | 360 | 0.0 | 2.6 | 0.00 | 0.00 | 0.00 | 77 | 1016.1 |
| 20260502121538 | 44 | 0 | 0.0 | 3.5 | 0.00 | 0.00 | 0.00 | 72 | 1016.1 |
| 20260502114545 | 46 | 192 | 0.0 | 0.0 | 0.00 | 0.00 | 0.00 | 68 | 1016.2 |
| 20260502113039 | 47 | 0 | 0.0 | 0.0 | 0.00 | 0.00 | 0.00 | 70 | 1016.3 |
| 20260502111539 | 47 | 0 | 0.0 | 0.0 | 0.00 | 0.00 | 0.00 | 69 | 1016.2 |
| 20260502110049 | 47 | 0 | 0.0 | 0.0 | 0.00 | 0.00 | 0.00 | 69 | 1016.2 |
| 20260502104541 | 47 | 0 | 0.0 | 0.0 | 0.00 | 0.00 | 0.00 | 69 | 1016.2 |
| 20260502103039 | 47 | 0 | 0.0 | 0.0 | 0.00 | 0.00 | 0.00 | 70 | 1016.1 |
| 20260502101549 | 47 | 0 | 0.0 | 0.0 | 0.00 | 0.00 | 0.00 | 70 | 1016.1 |
| 20260502070044 | 54 | 0 | 0.0 | 0.0 | 0.00 | 0.00 | 0.00 | 55 | 1016.9 |
| 20260502064543 | 55 | 0 | 0.0 | 2.6 | 0.00 | 0.00 | 0.00 | 53 | 1016.7 |
| 20260502063055 | 56 | 0 | 0.0 | 1.7 | 0.00 | 0.00 | 0.00 | 51 | 1016.8 |
| 20260502061539 | 56 | 0 | 0.0 | 1.7 | 0.00 | 0.00 | 0.00 | 50 | 1016.7 |
| 20260502060040 | 57 | 167 | 0.9 | 4.3 | 0.00 | 0.00 | 0.00 | 49 | 1016.9 |
| 20260502054545 | 56 | 164 | 0.9 | 4.3 | 0.00 | 0.00 | 0.00 | 48 | 1017.0 |
| 20260502053045 | 56 | 188 | 1.7 | 3.5 | 0.00 | 0.00 | 0.00 | 47 | 1016.7 |
| 20260502051544 | 57 | 195 | 0.0 | 0.0 | 0.00 | 0.00 | 0.00 | 47 | 1016.8 |
| 20260502050039 | 58 | 0 | 0.0 | 3.5 | 0.00 | 0.00 | 0.00 | 46 | 1016.8 |
| 20260502044544 | 59 | 0 | 0.0 | 1.7 | 0.00 | 0.00 | 0.00 | 39 | 1016.7 |
| 20260502043040 | 58 | 253 | 0.9 | 3.5 | 0.00 | 0.00 | 0.00 | 43 | 1016.5 |
| 20260502041552 | 60 | 0 | 0.0 | 0.0 | 0.00 | 0.00 | 0.00 | 40 | 1016.4 |
| 20260502040043 | 60 | 0 | 0.0 | 1.7 | 0.00 | 0.00 | 0.00 | 38 | 1016.2 |
| 20260502034540 | 61 | 0 | 0.0 | 0.0 | 0.00 | 0.00 | 0.00 | 39 | 1016.1 |
| 20260502033045 | 63 | 0 | 0.0 | 0.9 | 0.00 | 0.00 | 0.00 | 35 | 1015.9 |
| 20260502031539 | 64 | 0 | 0.9 | 6.1 | 0.00 | 0.00 | 0.00 | 36 | 1015.7 |
| 20260502030038 | 66 | 311 | 2.6 | 7.8 | 0.00 | 0.00 | 0.00 | 28 | 1015.4 |
| 20260502024600 | 66 | 270 | 3.5 | 7.8 | 0.00 | 0.00 | 0.00 | 28 | 1015.3 |
| 20260502023039 | 67 | 252 | 2.6 | 7.8 | 0.00 | 0.00 | 0.00 | 27 | 1015.3 |
| 20260502021540 | 68 | 257 | 3.5 | 9.6 | 0.00 | 0.00 | 0.00 | 26 | 1015.3 |
| 20260502020039 | 69 | 241 | 5.2 | 9.6 | 0.00 | 0.00 | 0.00 | 24 | 1015.1 |
| 20260502014543 | 70 | 251 | 3.5 | 7.8 | 0.00 | 0.00 | 0.00 | 20 | 1015.3 |
| 20260502013045 | 71 | 261 | 3.5 | 7.8 | 0.00 | 0.00 | 0.00 | 19 | 1015.3 |
| 20260502011542 | 71 | 274 | 1.7 | 7.8 | 0.00 | 0.00 | 0.00 | 19 | 1015.2 |
| 20260502010050 | 72 | 254 | 4.3 | 9.6 | 0.00 | 0.00 | 0.00 | 16 | 1015.4 |
| 20260502004553 | 72 | 325 | 0.9 | 7.8 | 0.00 | 0.00 | 0.00 | 16 | 1015.4 |
| 20260502003043 | 73 | 304 | 3.5 | 7.8 | 0.00 | 0.00 | 0.00 | 17 | 1015.4 |
| 20260502001540 | 73 | 248 | 2.6 | 7.0 | 0.00 | 0.00 | 0.00 | 16 | 1015.5 |
| 20260502000044 | 73 | 347 | 2.6 | 7.0 | 0.00 | 0.00 | 0.00 | 15 | 1015.5 |
| 20260501234541 | 73 | 305 | 1.7 | 6.1 | 0.00 | 0.00 | 0.00 | 15 | 1015.7 |
| 20260501233047 | 73 | 268 | 0.0 | 7.0 | 0.00 | 0.00 | 0.00 | 17 | 1015.9 |
| 20260501231540 | 72 | 304 | 1.7 | 7.8 | 0.00 | 0.00 | 0.00 | 17 | 1016.1 |
| 20260501230046 | 74 | 248 | 2.6 | 8.7 | 0.00 | 0.00 | 0.00 | 16 | 1016.3 |
| 20260501224550 | 73 | 0 | 1.7 | 7.0 | 0.00 | 0.00 | 0.00 | 18 | 1016.5 |
| 20260501223042 | 71 | 307 | 1.7 | 8.7 | 0.00 | 0.00 | 0.00 | 16 | 1016.7 |
| 20260501221539 | 72 | 5 | 1.7 | 6.1 | 0.00 | 0.00 | 0.00 | 18 | 1017.0 |
| 20260501220048 | 72 | 323 | 1.7 | 6.1 | 0.00 | 0.00 | 0.00 | 19 | 1017.3 |
| 20260501214545 | 72 | 136 | 1.7 | 6.1 | 0.00 | 0.00 | 0.00 | 20 | 1017.5 |
| 20260501213050 | 72 | 16 | 0.9 | 3.5 | 0.00 | 0.00 | 0.00 | 20 | 1017.6 |
| 20260501211548 | 70 | 32 | 1.7 | 5.2 | 0.00 | 0.00 | 0.00 | 20 | 1017.7 |
| 20260501210043 | 71 | 256 | 0.0 | 6.1 | 0.00 | 0.00 | 0.00 | 21 | 1017.9 |
| 20260501204551 | 70 | 249 | 0.9 | 8.7 | 0.00 | 0.00 | 0.00 | 23 | 1018.1 |
| 20260501203048 | 70 | 213 | 4.3 | 9.6 | 0.00 | 0.00 | 0.00 | 24 | 1018.3 |
| 20260501201546 | 68 | 240 | 2.6 | 7.0 | 0.00 | 0.00 | 0.00 | 24 | 1018.5 |
| 20260501200044 | 68 | 192 | 4.3 | 7.8 | 0.00 | 0.00 | 0.00 | 24 | 1018.9 |
| 20260501194541 | 67 | 244 | 5.2 | 11.3 | 0.00 | 0.00 | 0.00 | 27 | 1019.2 |
| 20260501193039 | 67 | 159 | 0.9 | 6.1 | 0.00 | 0.00 | 0.00 | 26 | 1019.2 |
| 20260501191543 | 67 | 165 | 4.3 | 8.7 | 0.00 | 0.00 | 0.00 | 25 | 1019.3 |
| 20260501190048 | 66 | 202 | 5.2 | 10.4 | 0.00 | 0.00 | 0.00 | 25 | 1019.5 |
| 20260501184558 | 66 | 188 | 2.6 | 7.8 | 0.00 | 0.00 | 0.00 | 27 | 1019.6 |
| 20260501183044 | 65 | 288 | 1.7 | 7.0 | 0.00 | 0.00 | 0.00 | 27 | 1019.8 |
| 20260501181543 | 64 | 26 | 0.9 | 6.1 | 0.00 | 0.00 | 0.00 | 29 | 1019.8 |
| 20260501180050 | 63 | 324 | 0.9 | 5.2 | 0.00 | 0.00 | 0.00 | 29 | 1020.1 |
| 20260501174548 | 62 | 355 | 1.7 | 4.3 | 0.00 | 0.00 | 0.00 | 29 | 1020.2 |
| 20260501173041 | 60 | 120 | 1.7 | 4.3 | 0.00 | 0.00 | 0.00 | 33 | 1020.3 |
| 20260501171540 | 59 | 273 | 0.9 | 5.2 | 0.00 | 0.00 | 0.00 | 35 | 1020.2 |
| 20260501170051 | 58 | 24 | 0.0 | 3.5 | 0.00 | 0.00 | 0.00 | 36 | 1020.3 |
| 20260501164540 | 56 | 264 | 0.0 | 2.6 | 0.00 | 0.00 | 0.00 | 44 | 1020.5 |
| 20260501163051 | 54 | 223 | 0.9 | 5.2 | 0.00 | 0.00 | 0.00 | 50 | 1020.6 |
| 20260501161545 | 52 | 161 | 1.7 | 4.3 | 0.00 | 0.00 | 0.00 | 49 | 1020.7 |
| 20260501160041 | 52 | 0 | 0.0 | 0.9 | 0.00 | 0.00 | 0.00 | 50 | 1020.5 |
| 20260501154540 | 50 | 0 | 0.0 | 2.6 | 0.00 | 0.00 | 0.00 | 55 | 1020.8 |
| 20260501153040 | 48 | 242 | 0.9 | 3.5 | 0.00 | 0.00 | 0.00 | 58 | 1020.7 |
| 20260501151551 | 46 | 0 | 0.9 | 4.3 | 0.00 | 0.00 | 0.00 | 61 | 1020.7 |
| 20260501150051 | 44 | 0 | 0.0 | 0.0 | 0.00 | 0.00 | 0.00 | 61 | 1020.8 |
| 20260501144545 | 42 | 0 | 0.0 | 0.9 | 0.00 | 0.00 | 0.00 | 66 | 1020.7 |
| 20260501143041 | 40 | 198 | 0.9 | 1.7 | 0.00 | 0.00 | 0.00 | 68 | 1020.5 |
| 20260501141540 | 38 | 0 | 0.0 | 0.0 | 0.00 | 0.00 | 0.00 | 71 | 1020.4 |